Regional Weather Roundup
Issued by NWS

Home | Current Version | Previous Version | Text Only | Print | Product List | Glossary Off
Versions: 1 2 3 4 5 6 7 8 9 10 11 12 13 14 15 16 17 18 19 20 21 22 23 24 25 26 27 28 29 30 31 32 33 34 35 36 37 38 39 40 41 42 43 44 45 46 47 48 49 50

000
ASUS43 KLMK 191610
RWRKY
KENTUCKY REGIONAL WEATHER ROUNDUP
NATIONAL WEATHER SERVICE LOUISVILLE KY
1100 AM EST MON FEB 19 2018

NOTE "FAIR" INDICATES FEW OR NO CLOUDS BELOW 12,000 FEET
WITH NO SIGNIFICANT WEATHER AND/OR OBSTRUCTIONS TO VISIBILITY.

KYZ001>023-026-027-061>063-070>075-191700-
WESTERN AND SOUTH CENTRAL KENTUCKY

CITY           SKY/WX    TMP DP  RH WIND       PRES   REMARKS
PADUCAH        CLOUDY    64  57  78 SW14G23   30.06R
HENDERSON      PTSUNNY   64  59  83 S21G28    30.05R
OWENSBORO      PTSUNNY   66  59  78 SW23G32   30.07R
HOPKINSVILLE   FAIR      69  56  61 S16G26    30.10S
BOWLING GREEN  PTSUNNY   71  60  68 S20G30    30.14S
GLASGOW        PTSUNNY   70  59  68 S14G23    30.15S
$$

KYZ024-025-028>034-038-045-046-053-191700-
NORTH CENTRAL KENTUCKY

CITY           SKY/WX    TMP DP  RH WIND       PRES   REMARKS
LOUISVILLE/SDF FAIR      70  58  65 S17G30    30.07S
LOUISVILLE/LOU FAIR      70  59  68 S21G31    30.08F
FORT KNOX      FAIR      69  57  67 S18G28    30.09F
$$

KYZ035>037-039>044-047>052-055>060-089>105-191700-
NORTHEAST KENTUCKY

CITY           SKY/WX    TMP DP  RH WIND       PRES   REMARKS
LEXINGTON      CLOUDY    68  58  70 S22G31    30.14R
COVINGTON      PTSUNNY   65  59  81 SW20G32   30.05F
FRANKFORT      PTSUNNY   70  57  63 SW18G35   30.11R
$$

KYZ054-064>069-076>088-106>120-191700-
SOUTHEAST KENTUCKY

CITY           SKY/WX    TMP DP  RH WIND       PRES   REMARKS
JACKSON        FAIR      67  55  65 S12G28    30.21F
LONDON         PTSUNNY   64  56  75 S17       30.22F
SOMERSET       PTSUNNY   64  55  72 MISG      30.22S
MIDDLESBORO    CLOUDY    59  51  75 S8        30.30S
MONTICELLO     NOT AVBL
$$





USA.gov is the U.S. government's official web portal to all federal, state and local government web resources and services.